Flag for U.S.A. Weather past 2 weeks in Dayton, Ohio, U.S.A.

Now
35 °F

Sunny.


Feels Like: 30 °F
Forecast: 22 / 37 °F
Wind: 6 mph from East

Location: Dayton / Wright-Patterson Air Force Base

Current Time: Dec 21, 2014 at 6:26:45 PM

Latest Report: Dec 21, 2014 at 4:58 PM


Visibility: 10 mi

Pressure: 30.22 "Hg

Humidity: 69%

Dew point: 26 °F

Location of DaytonLocation

Historic Weather in Dayton — Graph

°F

Dayton temperature yesterday

Maximum temperature yesterday: 32 °F (at 1:03 PM)
Minimum temperature yesterday: 29 °F (at 11:58 PM)
Average temperature yesterday: 30 °F

Past Weeks' High & Low Weather Summary

 TemperatureHumidityPressure
High52 °F (Dec 15, 2:58 PM)100% (Dec 15, 6:58 AM)30.66 "Hg (Dec 15, 6:58 AM)
Low19 °F (Dec 12, 7:58 AM)46% (Dec 11, 1:58 PM)29.70 "Hg (Dec 16, 5:58 AM)
Average35 °F79%30.23 "Hg
* Reported Dec 6 4:58 PM — Dec 21 4:58 PM, Dayton, Weather by CustomWeather, © 2014

Note: Actual official high and low records may vary slightly from our data, if they occured in-between our weather recording intervals... More about our weather records

Advertising

Dayton weather history for previous 24 hours

 ConditionsComfort  
Time TempWeatherWind HumidityBarometerVisibility
4:58 PM
Dec 21
35 °FSunny.6 mph69%30.22 "Hg10 mi
3:58 PM37 °FPartly sunny.5 mph64%30.22 "Hg10 mi
2:58 PM37 °FPartly sunny.8 mph63%30.23 "Hg10 mi
1:58 PM37 °FPartly sunny.8 mph61%30.24 "Hg7 mi
12:58 PM36 °FPartly sunny.9 mph63%30.27 "Hg10 mi
11:58 AM35 °FScattered clouds.7 mph64%30.32 "Hg7 mi
10:58 AM32 °FScattered clouds.7 mph69%30.35 "Hg7 mi
9:58 AM28 °FPassing clouds.1 mph82%30.36 "Hg7 mi
8:58 AM22 °FIce fog.No wind89%30.35 "Hg6 mi
7:58 AM21 °FIce fog.No wind91%30.35 "Hg4 mi
6:58 AM21 °FIce fog.No wind93%30.36 "Hg2 mi
5:58 AM23 °FIce fog.No wind87%30.34 "Hg2 mi
4:58 AM25 °FClear.No wind84%30.33 "Hg10 mi
3:58 AM29 °FOvercast.No wind73%30.34 "Hg10 mi
2:58 AM29 °FOvercast.No wind85%30.34 "Hg10 mi
1:58 AM29 °FOvercast.No wind86%30.33 "Hg10 mi
12:58 AM29 °FOvercast.No wind85%30.33 "Hg10 mi
11:58 PM
Dec 20
29 °FOvercast.No wind85%30.34 "Hg10 mi
10:58 PM29 °FOvercast.No wind82%30.32 "Hg10 mi
9:58 PM29 °FOvercast.No wind81%30.32 "Hg10 mi
8:58 PM30 °FOvercast.No wind74%30.33 "Hg10 mi
7:58 PM30 °FPassing clouds.No wind75%30.33 "Hg10 mi
6:58 PM31 °FOvercast.No wind74%30.33 "Hg10 mi
Weather by CustomWeather, © 2014

See weather overviewHow to use our weather pages